Date String (YYYY-MM-DD hh:mm:ss) UTC,Instrument flags,Ambient pressure (hPa),Sample flow (lpm),Bypass flow (lpm),Sample temperature (°C),Ambient temperature (°C),ASC tube jacket temperature (°C),LED temperature (°C),Box temperature (°C),Sample RH (%),Span deviation,Mass concentration (μg/m³),Mass concentration (μg/m³),Mass concentration (μg/m³)
DateTimeUTC,F1_M11,P_M11,Q1_M11,Q2_M11,T1_M11,T2_M11,T3_M11,T4_M11,T5_M11,U1_M11,ZSPAN_M11,X0_M11,X2_M11,X1_M11
2022-01-24 08:19:00,,0821.3,5.00,0.00,22.7,21.9,00.0,31.9,24.4,09.6,0000.0,0007.72,0003.74,0003.54
2022-01-24 08:20:00,,0821.3,5.01,0.00,22.7,21.9,00.0,31.8,24.3,09.5,0000.0,0008.07,0003.63,0003.45
2022-01-24 08:21:00,,0821.3,4.99,0.00,22.6,21.9,00.0,31.8,24.3,09.6,0000.0,0007.81,0003.56,0003.37
2022-01-24 08:22:00,,0821.3,5.00,0.00,22.6,21.8,00.0,31.8,24.2,09.6,0000.0,0007.47,0003.51,0003.33
2022-01-24 08:23:00,,0821.3,5.00,0.00,22.5,21.8,00.0,31.8,24.2,09.5,0000.0,0007.38,0003.42,0003.26
2022-01-24 08:24:00,,0821.3,4.99,0.00,22.5,21.7,00.0,31.7,24.1,09.6,0000.0,0007.41,0003.39,0003.22
2022-01-24 08:25:00,,0821.3,5.00,0.00,22.4,21.7,00.0,31.7,24.1,09.6,0000.0,0007.18,0003.36,0003.20
2022-01-24 08:26:00,,0821.3,5.01,0.00,22.4,21.7,00.0,31.7,24.0,09.4,0000.0,0006.28,0003.28,0003.14
2022-01-24 08:27:00,,0821.3,5.00,0.00,22.4,21.6,00.0,31.7,24.0,09.5,0000.0,0006.11,0003.27,0003.11
2022-01-24 08:28:00,,0821.3,5.00,0.00,22.4,21.6,00.0,31.6,24.0,09.5,0000.0,0005.81,0003.23,0003.04
2022-01-24 08:29:00,,0821.3,5.00,0.00,22.3,21.6,00.0,31.6,24.0,09.4,0000.0,0005.58,0003.15,0002.89
2022-01-24 08:30:00,,0821.3,5.01,0.00,22.3,21.6,00.0,31.6,24.0,09.3,0000.0,0005.21,0003.01,0002.71
2022-01-24 08:31:00,,0821.3,4.99,0.00,22.3,21.6,00.0,31.6,24.0,09.2,0000.0,0003.98,0002.84,0002.54
2022-01-24 08:32:00,,0821.3,5.00,0.00,22.3,21.6,00.0,31.5,23.9,09.1,0000.0,0003.48,0002.56,0002.32
2022-01-24 08:33:00,,0821.3,4.99,0.00,22.3,21.6,00.0,31.5,24.0,09.1,0000.0,0003.07,0002.23,0002.02
2022-01-24 08:34:00,,0821.3,4.99,0.00,22.3,21.7,00.0,31.5,24.0,09.0,0000.0,0002.77,0002.01,0001.82
2022-01-24 08:35:00,,0821.3,5.00,0.00,22.3,21.7,00.0,31.5,24.1,09.0,0000.0,0002.32,0001.73,0001.59
2022-01-24 08:36:00,,0821.3,5.01,0.00,22.3,21.7,00.0,31.5,24.1,09.1,0000.0,0001.99,0001.50,0001.36
2022-01-24 08:37:00,,0821.2,4.99,0.00,22.3,21.7,00.0,31.5,24.1,09.0,0000.0,0001.72,0001.34,0001.19
2022-01-24 08:38:00,,0821.2,5.00,0.00,22.3,21.7,00.0,31.4,24.1,09.0,0000.0,0001.43,0001.14,0001.02
2022-01-24 08:39:00,,0821.2,5.01,0.00,22.4,21.8,00.0,31.4,24.1,09.1,0000.0,0001.18,0000.94,0000.86
2022-01-24 08:40:00,,0821.2,5.00,0.00,22.4,21.8,00.0,31.4,24.1,09.1,0000.0,0001.05,0000.82,0000.75
2022-01-24 08:41:00,,0821.2,4.99,0.00,22.4,21.8,00.0,31.4,24.2,09.1,0000.0,0000.94,0000.74,0000.68
2022-01-24 08:42:00,,0821.2,5.00,0.00,22.4,21.9,00.0,31.4,24.2,09.3,0000.0,0000.92,0000.73,0000.67
2022-01-24 08:43:00,,0821.3,5.00,0.00,22.4,21.9,00.0,31.4,24.2,09.5,0000.0,0000.94,0000.75,0000.69
2022-01-24 08:44:00,,0821.3,5.00,0.00,22.5,21.9,00.0,31.4,24.2,09.4,0000.0,0000.96,0000.75,0000.69
2022-01-24 08:45:00,,0821.3,5.00,0.00,22.5,21.9,00.0,31.5,24.2,09.2,0000.0,0000.97,0000.75,0000.67
2022-01-24 08:46:00,,0821.3,5.00,0.00,22.5,21.9,00.0,31.5,24.3,09.1,0000.0,0000.95,0000.73,0000.66
2022-01-24 08:47:00,,0821.3,5.00,0.00,22.5,21.9,00.0,31.5,24.3,09.2,0000.0,0000.93,0000.71,0000.63
2022-01-24 08:48:00,,0821.3,4.98,0.00,22.5,21.9,00.0,31.5,24.3,09.3,0000.0,0000.90,0000.68,0000.60
2022-01-24 08:49:00,,0821.4,5.00,0.00,22.5,21.9,00.0,31.5,24.3,09.2,0000.0,0000.89,0000.66,0000.59
2022-01-24 08:50:00,,0821.4,5.00,0.00,22.6,22.0,00.0,31.5,24.3,09.2,0000.0,0000.86,0000.64,0000.57
2022-01-24 08:51:00,,0821.4,5.00,0.00,22.6,22.0,00.0,31.5,24.3,09.1,0000.0,0000.75,0000.61,0000.55
2022-01-24 08:52:00,,0821.4,5.00,0.00,22.6,22.0,00.0,31.5,24.3,09.2,0000.0,0000.75,0000.58,0000.52
2022-01-24 08:53:00,,0821.4,4.99,0.00,22.6,22.0,00.0,31.5,24.3,09.3,0000.0,0000.81,0000.57,0000.49
2022-01-24 08:54:00,,0821.4,5.00,0.00,22.6,22.0,00.0,31.5,24.4,09.3,0000.0,0000.79,0000.54,0000.44
2022-01-24 08:55:00,,0821.4,5.00,0.00,22.6,22.0,00.0,31.5,24.4,09.1,0000.0,0000.78,0000.53,0000.42
2022-01-24 08:56:00,,0821.4,5.00,0.00,22.6,22.0,00.0,31.5,24.4,09.0,0000.0,0000.77,0000.52,0000.42
2022-01-24 08:57:00,,0821.3,5.00,0.00,22.6,22.0,00.0,31.5,24.4,09.1,0000.0,0000.78,0000.52,0000.41
2022-01-24 08:58:00,,0821.3,5.00,0.00,22.6,22.0,00.0,31.5,24.4,09.1,0000.0,0000.79,0000.53,0000.41
2022-01-24 08:59:00,,0821.3,5.00,0.00,22.6,22.0,00.0,31.5,24.4,09.1,0000.0,0000.79,0000.52,0000.41
